Regional Weather Roundup
Issued by NWS

Home | Current Version | Previous Version | Graphics & Text | Print | Product List | Glossary On
Versions: 1 2 3 4 5 6 7 8 9 10 11 12 13 14 15 16 17 18 19 20 21 22 23 24 25 26 27 28 29 30 31 32 33 34 35 36 37 38 39 40 41 42 43 44 45 46 47 48 49 50
745
ASUS43 KIND 260809
RWRIN

WEATHER ROUNDUP FOR INDIANA
NATIONAL WEATHER SERVICE INDIANAPOLIS IN
300 AM EST SUN FEB 26 2017

NOTE: "FAIR" INDICATES FEW OR NO CLOUDS BELOW 12,000 FEET WITH NO
SIGNIFICANT WEATHER AND/OR OBSTRUCTIONS TO VISIBILITY.

* - STATION DOES NOT REPORT WEATHER SUCH AS PRECIPITATION OR FOG.

+ - STATION NOT QUALITY CONTROLLED BY THE NATIONAL WEATHER SERVICE.
    USE DATA WITH CAUTION...ESPECIALLY DEWPOINT AND RELATIVE
    HUMIDITY OBSERVATIONS.

INZ001>003-010>013-019-020-260900-
NORTHWEST INDIANA

CITY           SKY/WX    TMP DP  RH WIND       PRES   REMARKS
GARY /AIRPORT/ CLEAR     22  17  79 CALM      30.07F
KNOX *+        CLOUDY    21   1  42 SW6       30.08S WCI  14
LA PORTE +     CLOUDY    22  16  78 SW5       30.07S WCI  15
MICHIGAN CITY+ CLOUDY    27  16  63 S3        30.07S
MONTICELLO +   CLEAR     22  17  81 CALM      30.09F
RENSSELAER +     N/A     21  19  93 SW3       30.09S
VALPARAISO     CLOUDY    22  15  75 S6        30.07S WCI  14

$$

LMZ046-743>745-260900-
SOUTHERN LAKE MICHIGAN

STATION/POSITION TIME  TEMP    WIND        PRES    WAVE
                       AIR SEA DIR/SP/G            HT
                 (UTC) (F)     (DEG/KT/KT) (MB)    (FT)
BURNS HARBOR     0740   26     210/  8/ 10 1018.6R
MICHIGAN CITY    0740   28     250/ 12/ 13   N/A

$$

INZ004-005-014>016-021>024-260900-
NORTH CENTRAL INDIANA

CITY           SKY/WX    TMP DP  RH WIND       PRES   REMARKS
GOSHEN         CLOUDY    26  16  65 W9        30.06R WCI  17
LOGANSPORT +   PTCLDY    21  18  86 W3        30.11R
PERU/GRISSOM   PTCLDY    22  17  80 W7        30.08R WCI  14
ROCHESTER +    CLOUDY    27  18  69 W6        30.09R WCI  20
SOUTH BEND     CLOUDY    25  16  68 W7        30.06R WCI  17
WARSAW +       CLOUDY    25  16  68 W8        30.06S WCI  16

$$

INZ006>009-017-018-025>027-260900-
NORTHEAST INDIANA

CITY           SKY/WX    TMP DP  RH WIND       PRES   REMARKS
ANGOLA *+      CLOUDY    25  19  80 W3        30.03R
AUBURN +       FLURRIES  28  18  64 W10       30.06R WCI  19
FORT WAYNE     CLOUDY    26  17  68 W8        30.07R WCI  18
HUNTINGTON +   CLOUDY    25  15  65 W5        30.07R WCI  19
KENDALLVILLE + CLOUDY    25  18  74 W13       30.04R WCI  14

$$

INZ028-029-035-036-043>045-051>053-260900-
WEST CENTRAL INDIANA

CITY           SKY/WX    TMP DP  RH WIND       PRES   REMARKS
LAFAYETTE      CLEAR     21  17  84 CALM      30.11S
TERRE HAUTE    CLEAR     22  14  71 CALM      30.13S

$$

INZ030>032-037>040-046>048-054>057-064-065-260900-
CENTRAL INDIANA

CITY           SKY/WX    TMP DP  RH WIND       PRES   REMARKS
CP ATTERBURY + CLEAR     27  16  63 W5        30.13R WCI  21
FISHERS *+     CLEAR     23  19  86 W5        30.11R WCI  17
FRANKFORT +    CLEAR     23  19  85 W5        30.11S WCI  16
GREENWOOD *+   CLEAR     26  17  70 W5        30.11S WCI  20
INDIANAPOLIS   CLEAR     22  15  75 W5        30.10S WCI  16
-EAGLE CREEK   CLEAR     25  17  72 W7        30.10S WCI  17
KOKOMO +       CLEAR     22  17  81 W8        30.10R WCI  12
MARION +       CLEAR     23  19  81 W8        30.09R WCI  14
MT COMFORT *+  CLEAR     23  18  80 W8        30.10R WCI  14
SHELBYVILLE    CLEAR     25  15  66 W5        30.10S WCI  19
ZIONSVILLE +   CLEAR     23  17  80 W6        30.10S WCI  15

$$

INZ033-034-041-042-049-050-058-059-260900-
EAST CENTRAL INDIANA

CITY           SKY/WX    TMP DP  RH WIND       PRES   REMARKS
MUNCIE         PTCLDY    25  17  72 W7        30.08R WCI  17

$$

INZ060-061-067>069-081>083-085>088-260900-
SOUTHWEST INDIANA

CITY           SKY/WX    TMP DP  RH WIND       PRES   REMARKS
EVANSVILLE     CLEAR     29  15  56 NW3       30.16F
HUNTINGBURG *+ CLEAR     25  18  74 CALM      30.16S
WASHINGTON +   CLEAR     25  17  72 W3        30.15S

$$

INZ062-063-066-070>080-084-089>092-260900-
SOUTH CENTRAL AND SOUTHEAST INDIANA

CITY           SKY/WX    TMP DP  RH WIND       PRES   REMARKS
BEDFORD +      CLEAR     27  16  63 CALM      30.13R
BLOOMINGTON    CLEAR     25  13  60 NW3       30.12R
MADISON *+     CLEAR     28  18  64 W3        30.14S
NORTH VERNON + CLEAR     28  16  59 W7        30.12R WCI  21
SEYMOUR +      CLEAR     25  16  68 W5        30.14R WCI  19

$$





USA.gov is the U.S. government's official web portal to all federal, state and local government web resources and services.